Hourly Data Report for January 24, 2017

All times are specified in Local Standard Time (LST). Add 1 hour to adjust for Daylight Saving Time where and when it is observed.

ST LEONARD CS
NEW BRUNSWICK

47°09'28.050" N
67°49'55.014" W
245.00 m
810I001
71019
WIY

Download Data

Hourly Data (January 2017)
Hourly Data Report for January 24, 2017
Temp Definition
°C
Dew Point Temp Definition
°C
Rel Hum Definition
%
Wind Dir Definition
10's deg

Wind Spd Definition
km/h
Visibility Definition
km
Stn Press Definition
kPa
Hmdx Definition


Wind Chill Definition


Weather Definition


TIME
00:00 -7.7 -12.2 70 6 8   99.21   -12 LegendNANA
01:00 -8.9 -14.4 64 5 8   99.20   -13 LegendNANA
02:00 -8.0 -13.4 65 7 10   99.13   -13 LegendNANA
03:00 -7.7 -13.9 61 6 8   99.10   -12 LegendNANA
04:00 -7.8 -13.9 62 7 10   99.10   -13 LegendNANA
05:00 -9.0 -14.7 63 6 4   99.10   -11 LegendNANA
06:00 -10.7 -13.1 83 1 5   99.05   -14 LegendNANA
07:00 -8.9 -12.7 73 1 6   98.98   -12 LegendNANA
08:00 -9.6 -12.2 81 36 9   98.93   -14 LegendNANA
09:00 -7.9 -12.5 70 4 8   98.88   -12 LegendNANA
10:00 -6.1 -12.0 63 5 9   98.82   -10 LegendNANA
11:00 -6.9 -11.9 68 1 9   98.81   -11 LegendNANA
12:00 -6.2 -10.8 70 34 8   98.71   -10 LegendNANA
13:00 -3.4 -10.3 59 6 14   98.53   -8 LegendNANA
14:00 -2.8 -10.4 56 6 15   98.40   -8 LegendNANA
15:00 -2.8 -9.3 61 6 15   98.27   -8 LegendNANA
16:00 -3.6 -6.1 83 6 19   98.21   -10 LegendNANA
17:00 -3.8 -5.2 90 5 21   98.12   -10 LegendNANA
18:00 -3.6 -4.9 91 5 18   98.02   -9 LegendNANA
19:00 -3.2 -4.1 93 6 18   97.94   -9 LegendNANA
20:00 -3.2 -4.0 94 6 15   97.86   -8 LegendNANA
21:00 -3.1 -3.9 95 6 20   97.73   -9 LegendNANA
22:00 -2.8 -3.7 94 6 22   97.62   -9 LegendNANA
23:00 -2.2 -3.1 93 6 23   97.47   -8 LegendNANA

Notes on Data Quality.

Legend

  • E = Estimated
  • M = Missing
  • NA = Not Available
  • ‡ = Partner data that is not subject to review by the National Climate Archives
Date modified: